This is the latest recevied weather packets stored in our database for station/object OE3BIA-11. If no packets are shown the sender has not sent any weather packets the latest 1 day(s).
| Time | Temp. | Humidity | Pressure | Rain* | Wind** | Luminosity | Snow |
|---|---|---|---|---|---|---|---|
| 1777990048 | 27.22° C | 2% | - | - | 4.02 m/s, 90° | - | - |
| 1777989746 | 27.78° C | 2% | - | - | 4.47 m/s, 90° | - | - |
| 1777989443 | 27.22° C | 2% | - | - | 4.92 m/s, 90° | - | - |
| 1777989140 | 27.78° C | 2% | - | - | 4.92 m/s, 90° | - | - |
| 1777988532 | 27.78° C | 2% | - | - | 5.81 m/s, 90° | - | - |
| 1777988229 | 27.78° C | 2% | - | - | 4.92 m/s, 90° | - | - |
| 1777987926 | 27.78° C | 2% | - | - | 4.92 m/s, 90° | - | - |
| 1777987624 | 27.78° C | 2% | - | - | 4.47 m/s, 90° | - | - |
| 1777987321 | 27.78° C | 2% | - | - | 4.47 m/s, 90° | - | - |
| 1777987018 | 27.78° C | 2% | - | - | 5.81 m/s, 90° | - | - |
| 1777986715 | 27.78° C | 2% | - | - | 4.47 m/s, 90° | - | - |
| 1777986412 | 27.78° C | 2% | - | - | 4.47 m/s, 67° | - | - |
| 1777986110 | 27.22° C | 2% | - | - | 4.47 m/s, 67° | - | - |
| 1777985807 | 27.78° C | 2% | - | - | 4.92 m/s, 90° | - | - |
| 1777985504 | 27.78° C | 2% | - | - | 4.47 m/s, 90° | - | - |
| 1777985201 | 27.78° C | 2% | - | - | 3.58 m/s, 45° | - | - |
| 1777984899 | 27.22° C | 2% | - | - | 4.47 m/s, 67° | - | - |
| 1777984596 | 27.22° C | 2% | - | - | 4.02 m/s, 45° | - | - |
| 1777984293 | 27.22° C | 2% | - | - | 4.92 m/s, 67° | - | - |
| 1777983990 | 26.67° C | 2% | - | - | 4.47 m/s, 90° | - | - |
| 1777983688 | 27.22° C | 2% | - | - | 4.02 m/s, 90° | - | - |
| 1777983385 | 27.78° C | 2% | - | - | 3.13 m/s, 67° | - | - |
| 1777983082 | 26.67° C | 3% | - | - | 3.58 m/s, 45° | - | - |
| 1777982779 | 27.22° C | 3% | - | - | 3.13 m/s, 67° | - | - |
| 1777982477 | 26.67° C | 3% | - | - | 3.58 m/s, 67° | - | - |
* Rain since midnight (hover to see other rain measurements)
** Current wind speed in m/s (hover to see current wind gust speed)